Location: Te Maire Creek
(41.1333°S, 175.9167°E)
Time: 02:03:15
(UTC+00:00)

Cosmos 2173 Rocket - Pass Details

Date: 19 May 2024
Orbit: 943 x 1001 km, 83.0° (Epoch: 18 June)

Event Time Altitude Azimuth Distance (km) Brightness Sun altitude
Rises 18:48:18 0° 188° (S) 3,701 6.7 -6.7°
Reaches altitude 10° 18:50:48 10° 188° (S) 2,755 6.1 -6.2°
Maximum altitude 18:57:10 88° 278° (W) 1,001 4.1 -5.1°
Drops below altitude 10° 19:03:31 10° 4° (N) 2,758 6.8 -4.0°
Sets 19:06:02 0° 4° (N) 3,705 7.4 -3.6°
